Regional Weather Roundup
Issued by NWS

Home | Current Version | Previous Version | Graphics & Text | Print | Product List | Glossary On
Versions: 1 2 3 4 5 6 7 8 9 10 11 12 13 14 15 16 17 18 19 20 21 22 23 24 25 26 27 28 29 30 31 32 33 34 35 36 37 38 39 40 41 42 43 44 45 46 47 48 49 50
000
ASUS45 KBOU 210107
RWRCO

WEATHER ROUNDUP FOR COLORADO
NATIONAL WEATHER SERVICE DENVER/BOULDER CO
600 PM MST FRI JAN 20 2017

NOTE: "FAIR" INDICATES FEW OR NO CLOUDS BELOW 12000 FEET WITH NO
SIGNIFICANT WEATHER AND/OR OBSTRUCTIONS TO VISIBILITY.

COZ001>005-013-030-031-210200-
...NORTHWEST COLORADO...

CITY           SKY/WX    TMP DP  RH WIND       PRES   REMARKS
CRAIG          CLOUDY    28  21  75 E3        29.50F
HAYDEN         MOCLDY    25  19  80 SE3       29.50F
MEEKER         CLOUDY    27  25  92 CALM      29.49F
MOUNT WERNER   NOT AVBL
STEAMBOAT SPGS CLOUDY    26  23  89 CALM      29.51R
WALDEN           N/A     23  16  74 SW9       29.48S WCI  13
$$

COZ006>008-011-210200-
...WEST CENTRAL VALLEYS...

CITY           SKY/WX    TMP DP  RH WIND       PRES   REMARKS
GRAND JUNCTION MOCLDY    32  32 100 SW6       29.52S WCI  26
MONTROSE       MOCLDY    35  22  58 NE3       29.54F
EAGLE          LGT SNOW  28  27  93 SW9       29.53S FOG     WCI  20
RIFLE          FAIR      33  29  85 CALM      29.51S
DELTA          CLOUDY    38  29  70 NE5       29.54S
NUCLA          CLOUDY    34  27  75 S7        29.58R WCI  28
$$

COZ017>023-064>068-210200-
...SOUTHWEST COLORADO...

CITY           SKY/WX    TMP DP  RH WIND       PRES   REMARKS
DURANGO        FLURRIES  28  25  88 CALM      29.59F
CORTEZ         FLURRIES  32  30  92 NE5       29.58S WCI  27
PAGOSA SPRINGS CLOUDY    24  19  81 CALM      29.60S
TELLURIDE      CLOUDY    25  12  57 E3        29.54S
WOLF CREEK PAS CLOUDY     9   9 100 S23G36    29.54S WCI -12
$$

COZ009-010-012-014-032>034-037-058>063-210200-
...CENTRAL COLORADO...

CITY           SKY/WX    TMP DP  RH WIND       PRES   REMARKS
ASPEN          FAIR      19  16  88 CALM      29.49S
BUENA VISTA    FAIR      28  10  48 W12       29.48R WCI  18
COPPER MTN     FAIR      14   9  79 MISG      29.46S
BERTHOUD PASS  NOT AVBL
COTTONWOOD PAS FAIR      27   9  46 W8G17     29.47R WCI  18
GUNNISON       FAIR      17  13  84 NE6       29.54R WCI   9
KREMMLING      LGT SNOW  30  28  93 CALM      29.51S
LEADVILLE      FAIR      14  10  84 NE5       29.47R WCI   6
MONARCH PASS   CLOUDY    12   9  85 SW7G16    29.58S WCI   2
SALIDA         FAIR      32  14  47 S8        29.56S WCI  24
SUNLIGHT       CLOUDY    14  12  92 MISG      29.52S
WILKERSON PASS FAIR      14  10  85 W8        29.47R WCI   3
$$

COZ069>075-210200-
...SAN LUIS VALLEY/SANGRE DE CRISTO MOUNTAINS...

CITY           SKY/WX    TMP DP  RH WIND       PRES   REMARKS
ALAMOSA        FAIR      21  11  65 SW14      29.53R WCI   8
LA VETA PASS   FAIR      16  10  79 NE29G43   29.47R WCI  -4
SAGUACHE       FAIR      14  12  92 CALM      29.54S
$$

COZ035-036-038>040-210200-
...NORTHERN COLORADO FRONT RANGE...

CITY           SKY/WX    TMP DP  RH WIND       PRES   REMARKS
DENVER INTL AP FAIR      32  26  78 SE10      29.41R WCI  24
DMNS CITY PARK   N/A     38  27  62 E10G25    29.41R
AURORA         PTCLDY    33  28  84 E9        29.42R WCI  25
FRONT RANGE AP NOT AVBL
ERIE MUNI ARPT MOCLDY    37  29  73 E7        29.40R
BOULDER MUN AP FAIR      37  28  70 CALM      29.40R
CENTENNIAL     FAIR      36  24  62 E7        29.41R
BROOMFIELD     MOCLDY    39  28  65 E8        29.40R
FORT COLLINS   FAIR      37  27  65 SE3       29.40R
LONGMONT       FAIR      40  29  65 E3        29.42R
$$

COZ041-046-047-076>085-087-088-210200-
...PIKES PEAK/PALMER DIVIDE AND SOUTHERN FOOTHILLS...

CITY           SKY/WX    TMP DP  RH WIND       PRES   REMARKS
COLO. SPRINGS  MOCLDY    34  30  85 E6        29.44R WCI  29
A. F. ACADEMY  CLOUDY    33  29  88 S6        29.43R WCI  27
SCHRIEVER AFB  NOT AVBL
ELLICOTT       CLOUDY   N/A N/A N/A CALM      29.43R
FALCON         CLOUDY    32  30  93 S3        29.45R
FORT CARSON    FAIR      31  28  88 S10       29.42R WCI  23
LIMON          FAIR      32  30  92 CALM      29.44R
MONUMENT HILL  CLOUDY    30  28  93 S9        29.43S WCI  22
TRINIDAD       FAIR      36  17  46 W18       29.46R
$$

COZ042>045-048>051-090-091-210200-
...NORTHEAST COLORADO...

CITY           SKY/WX    TMP DP  RH WIND       PRES   REMARKS
GREELEY ARPT   FAIR      33  27  78 CALM      29.42R
AKRON          MOCLDY    35  27  72 N10       29.42R WCI  27
BURLINGTON     CLOUDY    34  32  92 W9        29.43R WCI  27
WRAY           MOCLDY    36  32  87 W6        29.41R
STERLING       CLOUDY    34  30  86 N3        29.41R
HOLYOKE        FAIR      39  32  75 NW12G17   29.41R
FORT MORGAN    FAIR      37  28  71 CALM      29.42R
$$

COZ086-089-092>099-210200-
...SOUTHEAST COLORADO...

CITY           SKY/WX    TMP DP  RH WIND       PRES   REMARKS
PUEBLO         FAIR      37  31  78 SE6       29.43R
LA JUNTA       FAIR      35  31  85 S9        29.45R WCI  28
LAMAR          MOCLDY    32  29  88 S5        29.45R WCI  27
SPRINGFIELD      N/A     29  28  96 S5        29.48R WCI  24
$$



USA.gov is the U.S. government's official web portal to all federal, state and local government web resources and services.